Regional Weather Roundup
Issued by NWS Cleveland, OH

Home | Current Version | Previous Version | Graphics & Text | Print | Product List | Glossary On
Versions: 1 2 3 4 5 6 7 8 9 10 11 12 13 14 15 16 17 18 19 20 21 22 23 24 25 26 27 28 29 30 31 32 33 34 35 36 37 38 39 40 41 42 43 44 45 46 47 48 49 50
000
ASUS41 KCLE 280810
RWRCLE
OHIO REGIONAL WEATHER ROUNDUP
NATIONAL WEATHER SERVICE WILMINGTON, OH
400 AM EDT FRI JUL 28 2017

NOTE: "FAIR" INDICATES FEW OR NO CLOUDS BELOW 12,000 FEET WITH NO
SIGNIFICANT WEATHER AND/OR OBSTRUCTIONS TO VISIBILITY.

OHZ001>008-015>018-024>027-034-035-043-044-280900-
   NORTHWEST OHIO

CITY           SKY/WX    TMP DP  RH WIND       PRES   REMARKS
DEFIANCE       FAIR      66  60  81 NE7       29.91S
FINDLAY        FAIR      69  61  75 NE13      29.89S
TOLEDO EXPRESS FAIR      65  61  87 N6        29.91S
TOLEDO EXEC    FAIR      69  64  84 NE8       29.91F
LIMA           MOCLDY    68  68 100 NE8       29.89F
$$

OHZ009>014-019>023-028>033-038-089-280900-
   NORTHEAST OHIO

CITY           SKY/WX    TMP DP  RH WIND       PRES   REMARKS
CLE-HOPKINS    MOCLDY    73  67  81 N3        29.90S
CLE-LAKEFRONT  FAIR      72  66  81 E3        29.87S
CUY CO. ARPT   NOT AVBL
LORAIN-ELYRIA  FAIR      64  59  83 CALM      29.90R
ASHTABULA      FOG       62  62 100 CALM      29.90R VSB 1/2
AKRON-CANTON   MOCLDY    68  63  84 N8        29.88S
WOOSTER        FAIR      67  63  87 N5        29.89S
MANSFIELD      MOCLDY    66  66 100 N8        29.90R FOG
YOUNGSTOWN     MOCLDY    66  63  90 NE7       29.88F
$$

OHZ042-051>053-060>062-070>072-077>081-280900-
  SOUTHWEST OHIO

CITY           SKY/WX    TMP DP  RH WIND       PRES   REMARKS
CINC-COVINGTON CLOUDY    74  74 100 CALM      29.85S
CINC-LUNKEN    CLOUDY    73  73 100 CALM      29.84F
HAMILTON       CLOUDY    74  74 100 CALM      29.85F
DAYTON         CLOUDY    70  69  97 NE3       29.88S
WRIGHT-PAT AFB CLOUDY    70  70 100 NE3       29.86S
DAYTON GENERAL CLOUDY    71  70  96 CALM      29.85F
WILMINGTON     MOCLDY    69  69 100 NE5       29.86R FOG
$$

OHZ036-037-039>041-045>050-054>059-063>069-073>076-082>088-280900-
  CENTRAL AND SOUTHEAST OHIO

CITY           SKY/WX    TMP DP  RH WIND       PRES   REMARKS
COLUMBUS       CLOUDY    70  70 100 NE5       29.85F
OSU AIRPORT    CLOUDY    69  69 100 N5        29.86S FOG
BOLTON FIELD   CLOUDY    69  69 100 CALM      29.86F FOG
RICKENBACK AFB CLOUDY    69  69 100 N7        29.85S
NEWARK         CLOUDY    71  69  93 N3        29.85F
MARION         FAIR      65  63  93 NE6       29.89S FOG
LANCASTER      CLOUDY    71  70  96 N7        29.85F FOG
ZANESVILLE     LGT RAIN  71  69  93 NE5       29.85S FOG
NEW PHILLY     CLOUDY    69  69 100 CALM      29.87F FOG
$$



USA.gov is the U.S. government's official web portal to all federal, state and local government web resources and services.